Date,TemperatureHighF,TemperatureAvgF,TemperatureLowF,DewpointHighF,DewpointAvgF,DewpointLowF,HumidityHigh,HumidityAvg,HumidityLow,PressureMaxIn,PressureMinIn,WindSpeedMaxMPH,WindSpeedAvgMPH,GustSpeedMaxMPH,PrecipitationSumIn
2013-1-1,81.9,61.8,48.9,55.3,45.9,37.2,100,61,21,30.12,29.91,14,2,14,0.00
2013-1-2,74.3,65.5,60.1,61.6,54.4,47.7,94,69,45,29.97,29.85,10,2,10,0.00
2013-1-3,61.3,56.8,49.8,59.9,54.6,48.5,98,93,77,30.15,29.94,10,1,10,0.00
2013-1-4,57.2,51.8,47.5,49.7,44.2,40.4,96,76,58,30.21,30.12,8,2,8,0.00
2013-1-5,74.7,53.6,43.0,47.5,38.2,28.4,80,57,24,30.24,30.15,10,2,10,0.00
2013-1-6,62.1,56.3,51.3,55.1,49.9,44.0,100,80,52,30.15,30.00,8,1,8,0.00
2013-1-7,64.9,54.1,46.6,52.0,43.9,37.3,100,70,40,30.21,30.06,15,4,15,0.00
2013-1-8,70.3,61.7,57.4,60.7,53.9,48.2,94,76,54,30.18,30.09,12,2,12,0.00
2013-1-9,75.2,66.4,61.7,66.8,61.5,57.1,100,86,55,30.24,30.12,13,1,13,0.00
2013-1-10,82.8,68.1,62.1,66.4,60.7,49.2,100,81,34,30.27,30.18,11,1,11,0.00
2013-1-11,88.7,69.8,61.7,67.8,55.7,39.6,100,68,20,30.18,30.06,13,2,13,0.00
2013-1-12,91.8,70.1,61.7,68.0,56.2,38.8,98,68,18,30.12,30.00,8,1,8,0.00
2013-1-13,83.5,69.9,63.7,62.9,54.7,40.4,92,63,25,30.06,29.97,11,2,11,0.00
2013-1-14,89.4,70.6,61.9,63.2,52.9,40.4,96,58,19,30.09,30.00,13,2,13,0.00
2013-1-15,88.2,71.4,64.2,64.4,54.3,42.0,93,58,21,30.06,29.94,13,2,13,0.00
2013-1-16,84.9,72.1,65.7,60.3,52.1,40.0,78,52,22,30.00,29.85,14,4,14,0.00
2013-1-17,75.6,61.6,44.8,57.9,44.7,22.8,86,56,31,30.03,29.80,18,5,18,0.00
2013-1-18,66.4,50.4,43.2,33.0,29.4,22.5,56,45,26,30.30,30.03,22,5,22,0.00
2013-1-19,65.7,55.2,45.9,51.0,40.7,30.8,84,59,37,30.27,30.09,14,4,14,0.00
2013-1-20,86.9,61.6,53.6,52.7,42.4,28.4,87,56,14,30.12,29.94,10,1,10,0.00
2013-1-21,75.0,59.1,50.7,46.1,38.0,31.0,79,50,22,30.03,29.91,9,1,9,0.00
2013-1-22,72.1,53.5,44.6,33.0,22.4,14.6,46,31,15,30.21,30.00,12,2,12,0.00
2013-1-23,76.8,50.2,37.4,28.8,22.0,14.9,54,35,14,30.33,30.18,10,2,10,0.00
2013-1-24,79.2,59.6,47.5,47.6,34.3,27.4,67,40,21,30.21,30.09,18,2,18,0.00
2013-1-25,81.1,62.4,54.7,50.5,41.1,25.2,78,50,15,30.24,30.06,12,3,12,0.00
2013-1-26,78.6,65.1,54.5,53.5,46.4,36.5,93,54,29,30.12,30.03,13,2,13,0.00
2013-1-27,68.7,62.6,58.8,52.9,45.8,37.5,76,56,35,30.27,30.12,15,4,15,0.00
2013-1-28,78.1,66.1,55.8,60.2,51.7,46.3,88,63,34,30.27,30.15,9,1,9,0.00
2013-1-29,88.7,70.2,61.3,64.3,55.6,42.5,94,64,21,30.18,30.00,9,2,9,0.00
2013-1-30,86.2,74.1,57.2,62.3,51.8,42.7,88,49,23,30.00,29.68,24,7,24,0.00
2013-1-31,71.1,53.7,45.0,53.4,26.2,12.1,88,39,15,30.15,29.80,17,4,17,0.00
2013-2-1,66.9,52.0,39.9,29.1,19.5,11.3,43,29,16,30.24,30.12,15,3,15,0.00
2013-2-2,74.3,50.5,36.5,34.6,18.5,9.8,62,30,14,30.24,30.06,10,1,10,0.00
2013-2-3,78.1,54.5,43.3,33.7,21.4,12.4,61,30,14,30.09,29.94,14,3,14,0.00
2013-2-4,66.6,54.6,41.7,35.8,27.6,16.8,76,39,16,30.03,29.94,8,1,8,0.00
2013-2-5,72.3,58.8,46.2,40.4,32.1,24.3,59,38,22,30.00,29.88,9,1,9,0.00
2013-2-6,74.8,63.4,58.8,52.0,44.1,35.8,76,50,28,30.06,29.94,7,1,7,0.00
2013-2-7,84.9,67.8,61.0,61.6,53.4,42.1,89,62,24,30.00,29.71,15,3,15,0.00
2013-2-8,85.8,63.0,55.6,59.1,45.2,33.0,79,55,17,30.00,29.74,15,4,15,0.00
2013-2-9,78.6,57.3,48.6,48.2,37.2,24.3,83,51,16,30.15,29.97,15,3,15,0.00
2013-2-10,77.7,64.2,51.6,49.9,43.8,35.1,85,51,23,30.21,30.06,15,3,15,0.00
2013-2-11,84.2,71.7,64.0,55.4,48.4,40.1,68,46,22,30.09,29.94,15,4,15,0.00
2013-2-12,85.6,70.5,65.3,66.5,56.0,44.0,100,64,27,29.97,29.77,15,3,15,0.00
2013-2-13,79.7,70.7,58.5,70.9,56.5,32.5,99,63,27,29.83,29.68,15,4,15,0.00
2013-2-14,58.5,53.5,48.6,54.8,44.1,36.3,92,71,54,29.97,29.80,10,0,10,0.00
2013-2-15,80.4,53.5,42.3,41.8,36.8,25.7,84,57,16,30.00,29.88,10,1,10,0.00
2013-2-16,62.2,49.0,38.7,44.9,34.8,17.0,87,61,26,30.03,29.83,17,3,17,0.00
2013-2-17,72.5,42.9,32.2,21.8,11.0,3.5,44,29,14,30.27,30.03,13,3,13,0.00
2013-2-18,76.6,48.0,30.4,37.4,22.6,12.1,69,41,14,30.30,30.12,11,1,11,0.00
2013-2-19,83.1,63.3,45.9,61.8,42.0,31.7,92,52,18,30.12,29.88,22,4,22,0.00
2013-2-20,84.7,58.1,46.2,54.7,29.0,12.4,84,39,12,30.09,29.94,11,2,11,0.00
2013-2-21,79.0,58.6,44.2,51.2,36.7,19.7,79,49,16,30.06,29.94,9,2,9,0.00
2013-2-22,88.7,71.3,62.2,66.3,55.4,41.7,98,62,20,29.97,29.88,11,1,11,0.00
2013-2-23,84.2,72.8,62.6,65.6,56.4,42.8,99,63,25,29.88,29.74,17,4,17,0.00
2013-2-24,80.4,65.2,58.6,66.2,49.4,19.6,100,66,15,29.91,29.74,9,1,9,0.00
2013-2-25,66.7,62.1,59.9,66.7,60.1,49.3,100,94,63,29.85,29.71,15,3,15,0.00
2013-2-26,83.7,69.2,61.0,69.1,54.1,32.2,100,66,19,29.71,29.53,17,5,17,0.00
2013-2-27,77.0,61.5,54.5,43.8,33.3,22.5,57,37,16,29.88,29.71,15,4,15,0.00
2013-2-28,81.0,60.3,50.0,36.8,26.7,14.5,57,31,13,29.88,29.74,18,3,18,0.00
2013-3-1,75.4,54.8,48.2,24.5,21.7,16.6,38,28,14,29.91,29.80,11,4,11,0.00
2013-3-2,66.9,47.7,39.7,27.4,19.4,11.8,61,34,16,29.91,29.83,19,4,19,0.00
2013-3-3,49.5,42.4,35.2,21.8,17.0,12.5,54,37,25,30.03,29.88,17,4,17,0.00
2013-3-4,72.1,49.5,34.9,31.6,18.9,10.8,52,33,15,30.12,30.00,12,2,12,0.00
2013-3-5,81.0,61.6,43.5,45.3,30.3,20.8,52,33,13,30.06,29.80,17,4,17,0.00
2013-3-6,69.3,53.7,44.8,57.3,23.8,12.4,87,34,16,30.03,29.74,22,6,22,0.00
2013-3-7,69.4,50.5,37.6,39.1,23.9,16.6,65,38,16,30.15,30.03,8,2,10,0.00
2013-3-8,79.3,54.3,41.7,40.5,33.9,19.6,81,52,13,30.12,30.06,13,2,13,0.00
2013-3-9,74.7,55.9,45.0,47.7,37.3,26.3,89,55,19,30.18,30.09,14,2,14,0.00
2013-3-10,79.3,62.7,50.5,55.0,42.3,34.3,90,52,21,30.12,30.03,8,1,10,0.00
2013-3-11,78.4,66.7,55.9,56.7,45.1,35.9,89,50,23,30.03,29.80,14,2,14,0.00
2013-3-12,69.8,65.1,54.5,67.2,49.6,28.7,100,61,24,29.91,29.74,12,3,12,0.00
2013-3-13,77.0,60.0,49.6,34.1,22.3,12.6,46,26,14,30.09,29.91,14,3,14,0.00
2013-3-14,68.5,52.7,43.3,27.3,16.5,9.0,49,25,16,30.21,30.06,11,2,11,0.00
2013-3-15,79.2,57.3,40.8,28.3,22.4,13.9,54,30,13,30.18,30.00,10,1,10,0.00
2013-3-16,86.2,65.2,49.1,39.6,28.6,20.8,68,29,12,30.06,29.88,12,2,12,0.00
2013-3-17,83.3,65.8,51.4,48.2,31.0,21.5,80,31,12,30.03,29.88,11,2,11,0.00
2013-3-18,82.6,70.7,63.0,53.1,44.8,37.5,67,41,23,29.94,29.77,13,2,13,0.00
2013-3-19,88.0,71.2,63.3,53.2,42.1,35.0,61,37,19,29.91,29.77,17,2,17,0.00
2013-3-20,66.9,60.8,51.8,52.5,40.2,29.6,89,50,29,29.91,29.74,17,2,17,0.00
2013-3-21,74.5,55.7,42.8,49.9,26.4,12.4,96,40,14,29.85,29.74,14,2,14,0.00
2013-3-22,67.6,56.4,48.6,38.1,23.5,16.5,49,29,18,29.97,29.83,13,3,13,0.00
2013-3-23,69.3,61.0,55.6,67.1,55.1,38.1,100,83,49,29.91,29.71,15,1,15,0.00
2013-3-24,82.9,71.6,61.3,72.3,58.9,43.5,100,71,26,29.71,29.41,15,4,15,0.00
2013-3-25,75.7,60.2,51.3,52.6,24.6,12.4,62,28,14,29.94,29.50,22,4,22,0.00
2013-3-26,68.0,49.7,40.8,21.9,14.4,9.4,43,25,16,30.15,29.94,17,3,17,0.00
2013-3-27,73.8,49.6,37.8,24.3,18.1,12.7,46,31,14,30.21,30.09,13,2,13,0.00
2013-3-28,81.7,54.5,42.3,32.1,23.4,15.5,49,32,13,30.21,30.09,11,2,11,0.00
2013-3-29,86.4,59.0,45.5,36.0,28.1,17.9,64,36,12,30.24,30.09,10,1,10,0.00
2013-3-30,85.3,64.1,48.4,39.3,29.5,19.6,58,31,12,30.15,30.00,13,2,13,0.00
2013-3-31,83.8,69.7,59.2,42.9,34.5,26.5,47,29,17,30.03,29.85,14,3,14,0.00
2013-4-1,86.2,70.9,63.7,60.0,48.3,39.1,71,47,20,29.88,29.77,14,2,14,0.00
2013-4-2,87.3,67.2,56.8,54.5,37.9,20.8,81,42,12,30.00,29.88,13,2,13,0.00
2013-4-3,81.3,66.9,59.9,64.8,51.4,36.8,100,63,22,30.00,29.91,14,2,14,0.00
2013-4-4,77.7,70.1,64.8,70.3,58.8,47.9,100,72,37,29.97,29.74,13,2,13,0.00
2013-4-5,68.4,59.7,55.8,60.3,55.1,48.0,99,85,62,29.94,29.71,10,1,10,0.00
2013-4-6,77.9,60.6,50.2,52.1,43.9,30.2,86,58,22,30.09,29.91,17,3,17,0.00
2013-4-7,76.6,66.2,57.6,63.6,48.5,37.0,93,58,26,30.09,30.00,10,1,10,0.00
2013-4-8,88.3,69.2,57.7,62.8,49.1,37.2,91,55,19,30.03,30.03,10,1,10,0.00
2013-4-9,89.1,72.0,63.5,65.4,52.1,39.4,93,56,20,30.09,30.03,10,1,10,0.00
2013-4-10,83.3,71.5,61.0,61.7,52.8,46.0,88,56,30,30.06,29.91,10,1,10,0.00
2013-4-11,90.1,75.9,69.6,71.2,60.8,44.5,100,64,22,29.91,29.71,13,3,13,0.00
2013-4-12,88.3,77.5,71.2,72.2,59.2,42.9,100,59,21,29.77,29.65,15,4,15,0.00
2013-4-13,83.7,72.2,63.3,59.2,38.4,24.4,66,33,13,29.91,29.77,10,2,10,0.00
2013-4-14,75.0,66.1,62.4,66.2,54.9,44.0,100,70,34,29.91,29.77,13,2,13,0.00
2013-4-15,90.1,70.4,62.6,67.8,58.1,45.0,100,71,22,30.03,29.71,12,2,12,0.00
2013-4-16,86.9,72.3,66.0,64.8,57.8,44.6,92,65,24,30.09,30.00,14,2,14,0.00
2013-4-17,78.1,71.2,65.1,65.8,57.8,49.7,91,65,40,30.09,30.00,11,2,11,0.00
2013-4-18,86.9,74.8,65.5,68.8,56.2,43.0,92,58,24,30.00,29.85,9,1,9,0.00
2013-4-19,90.9,78.7,66.0,67.9,57.6,45.1,83,52,22,29.91,29.77,17,4,17,0.00
2013-4-20,65.8,56.7,51.1,60.6,50.0,39.0,98,80,46,30.09,29.88,9,2,9,0.00
2013-4-21,72.5,63.9,56.1,59.3,47.5,39.8,82,56,38,30.12,30.03,20,5,20,0.00
2013-4-22,66.0,62.5,59.4,62.9,54.1,39.5,100,77,43,30.06,29.97,18,5,18,0.00
2013-4-23,75.4,63.8,57.0,57.5,47.4,39.0,90,59,28,30.06,29.97,13,3,13,0.00
2013-4-24,85.6,69.2,55.4,62.7,47.3,29.7,93,54,14,30.06,29.97,8,1,8,0.00
2013-4-25,87.6,74.8,63.0,60.7,50.2,40.2,85,46,20,30.09,30.00,10,1,10,0.00
2013-4-26,82.0,71.4,64.0,57.5,46.4,39.0,65,42,25,30.21,30.06,15,4,15,0.00
2013-4-27,85.6,71.9,63.0,59.9,47.6,35.6,82,47,20,30.18,30.06,13,3,13,0.00
2013-4-28,84.9,73.7,66.0,62.4,52.6,42.2,83,52,24,30.09,29.91,13,2,13,0.00
2013-4-29,82.6,73.0,65.5,65.1,53.7,44.4,96,54,26,29.94,29.83,14,2,14,0.00
2013-4-30,88.2,71.8,65.1,69.3,57.5,41.7,99,67,20,29.94,29.85,12,1,12,0.00
2013-5-1,77.0,70.0,66.4,64.9,56.4,50.1,88,63,43,29.97,29.88,17,5,17,0.00
2013-5-2,70.0,68.6,66.7,69.8,66.7,57.9,100,94,70,29.94,29.83,17,4,17,0.00
2013-5-3,69.3,67.3,64.6,67.3,60.9,40.7,100,82,36,29.83,29.74,22,6,22,0.00
2013-5-4,69.1,67.3,65.3,69.1,65.0,46.0,100,94,46,29.74,29.62,16,3,16,0.00
2013-5-5,77.9,68.2,60.4,69.8,48.1,25.6,100,59,16,29.80,29.62,13,2,13,0.00
2013-5-6,76.6,65.9,56.7,48.7,34.0,22.5,62,33,14,29.88,29.77,10,2,10,0.00
2013-5-7,78.3,67.4,57.2,44.3,38.5,30.3,61,36,19,29.91,29.80,15,2,15,0.00
2013-5-8,83.8,70.9,59.2,57.2,43.0,33.0,88,42,17,30.00,29.88,10,1,10,0.00
2013-5-9,86.4,74.1,65.1,61.2,47.3,34.6,86,44,17,30.03,29.97,8,1,8,0.00
2013-5-10,89.2,76.5,64.2,60.0,47.6,32.5,74,40,14,30.03,29.88,14,2,14,0.00
2013-5-11,91.8,76.2,69.1,67.9,54.4,41.8,91,51,19,29.94,29.83,14,1,14,0.00
2013-5-12,86.4,75.4,67.6,65.2,52.3,38.9,91,51,20,29.91,29.83,10,1,10,0.00
2013-5-13,84.2,71.1,62.2,41.6,28.9,19.6,37,22,12,30.06,29.91,11,2,11,0.00
2013-5-14,82.0,68.2,54.0,37.7,27.9,20.5,42,25,13,30.15,30.03,9,1,9,0.00
2013-5-15,87.3,73.3,60.1,45.7,36.6,26.0,58,30,12,30.12,29.97,10,1,10,0.00
2013-5-16,88.0,76.4,68.4,48.6,44.1,35.7,45,33,17,30.03,29.91,12,2,12,0.00
2013-5-17,89.2,77.1,68.2,57.4,47.0,29.3,67,38,14,30.00,29.94,10,2,10,0.00
2013-5-18,91.2,77.8,70.0,72.4,56.6,41.2,97,53,19,30.03,29.91,9,2,9,0.00
2013-5-19,89.4,77.1,69.6,71.8,60.1,42.7,100,62,21,30.00,29.88,10,1,10,0.00
2013-5-20,85.3,75.8,69.8,72.3,62.5,50.2,100,68,31,30.00,29.91,10,0,10,0.00
2013-5-21,84.0,74.7,71.4,72.7,63.5,50.8,93,71,34,29.94,29.85,0,0,0,0.00
2013-5-22,85.3,75.8,68.7,72.7,61.3,49.0,93,65,30,29.91,29.83,0,0,0,0.00
2013-5-23,94.5,79.9,69.4,69.5,55.8,38.1,92,51,18,29.88,29.80,9,1,9,0.00
2013-5-24,97.0,80.4,72.1,67.4,45.6,25.7,85,37,9,30.00,29.83,13,2,13,0.00
2013-5-25,87.4,75.1,67.8,50.0,36.3,27.9,47,26,14,30.15,30.00,13,3,13,0.00
2013-5-26,92.1,74.2,62.6,49.5,37.0,23.1,58,30,9,30.15,30.06,12,1,12,0.00
2013-5-27,88.9,75.9,65.1,53.0,44.7,36.3,63,35,17,30.12,30.03,10,1,10,0.00
2013-5-28,90.1,77.4,68.4,55.6,48.9,40.7,60,39,21,30.09,30.03,13,2,13,0.00
2013-5-29,88.0,79.0,71.2,64.2,57.2,51.4,75,50,29,30.06,30.00,14,2,14,0.00
2013-5-30,88.7,79.9,73.9,71.6,60.0,48.6,90,55,26,30.09,30.00,15,2,15,0.00
2013-5-31,91.4,79.4,72.0,71.1,58.8,44.9,90,55,21,30.06,30.00,14,1,14,0.00
2013-6-1,89.6,80.1,73.0,71.8,57.8,44.5,92,50,22,30.00,29.91,12,2,12,0.00
2013-6-2,89.8,80.2,73.8,74.9,63.4,52.3,96,62,29,29.97,29.80,9,1,9,0.00
2013-6-3,91.2,80.5,74.3,71.3,61.1,48.1,89,55,24,29.85,29.74,11,2,11,0.00
2013-6-4,87.1,78.4,73.6,76.0,65.0,54.7,96,65,36,29.91,29.83,11,1,11,0.00
2013-6-5,86.2,76.5,72.7,73.9,65.7,50.4,99,73,31,29.91,29.83,13,1,13,0.00
2013-6-6,76.5,74.0,71.6,76.3,73.6,69.9,100,99,90,29.85,29.44,20,1,20,0.00
2013-6-7,91.8,79.3,70.7,73.9,59.3,46.1,100,57,23,29.83,29.44,15,3,15,0.00
2013-6-8,92.1,81.3,74.3,71.8,58.3,41.8,90,50,19,29.97,29.83,11,2,11,0.00
2013-6-9,89.2,79.2,75.0,75.9,64.5,50.1,94,64,30,30.03,29.94,13,2,13,0.00
2013-6-10,91.8,82.2,75.4,73.4,61.2,46.2,92,54,22,30.00,29.88,9,2,9,0.00
2013-6-11,95.7,84.0,76.6,70.3,57.3,44.4,80,43,18,29.97,29.88,9,1,9,0.00
2013-6-12,104.0,86.1,75.4,70.7,56.2,40.0,83,42,13,29.97,29.85,8,1,8,0.00
2013-6-13,97.5,85.3,78.4,76.4,60.0,44.1,87,45,18,29.88,29.74,15,2,15,0.00
2013-6-14,93.7,80.4,71.1,74.0,66.8,50.3,98,68,24,29.85,29.68,17,2,17,0.00
2013-6-15,91.4,79.8,74.3,74.9,54.6,41.6,97,46,19,30.00,29.85,11,2,11,0.00
2013-6-16,94.6,80.6,72.5,63.4,55.1,43.1,71,44,18,30.03,29.94,12,2,12,0.00
2013-6-17,95.7,84.2,77.9,71.1,60.1,44.8,79,47,20,30.00,29.85,9,2,9,0.00
2013-6-18,97.5,84.5,74.7,68.2,54.2,42.7,80,40,17,29.94,29.80,11,2,11,0.00
2013-6-19,102.0,83.9,74.3,74.2,57.8,40.0,97,46,13,29.94,29.83,12,2,12,0.00
2013-6-20,91.8,79.7,74.5,75.5,64.7,47.3,100,65,22,30.00,29.88,19,2,19,0.00
2013-6-21,87.8,78.7,75.0,75.3,66.5,51.4,93,70,30,30.03,29.94,13,2,13,0.00
2013-6-22,87.1,78.1,74.7,76.9,67.6,51.6,97,74,31,30.03,29.97,13,1,13,0.00
2013-6-23,92.3,81.1,74.3,76.3,62.5,46.1,92,59,22,30.06,30.00,10,1,10,0.00
2013-6-24,94.1,81.2,76.1,78.9,62.3,45.0,91,56,20,30.09,30.00,8,1,8,0.00
2013-6-25,90.9,82.1,76.1,74.7,60.3,42.2,88,52,19,30.09,29.94,10,2,10,0.00
2013-6-26,91.9,80.5,72.5,74.3,62.9,46.0,96,58,23,30.00,29.88,10,2,10,0.00
2013-6-27,91.2,82.3,73.2,66.4,57.7,48.2,77,45,26,29.94,29.77,9,2,10,0.00
2013-6-28,90.7,80.4,75.0,72.7,61.3,50.6,89,54,27,29.83,29.68,13,2,13,0.00
2013-6-29,87.6,81.0,74.8,75.9,62.0,51.9,92,55,30,29.71,29.65,12,3,12,0.00
2013-6-30,91.0,79.6,73.6,74.7,65.7,50.9,93,65,26,29.77,29.68,11,3,11,0.00
2013-7-1,85.5,77.0,73.2,74.1,67.5,51.4,100,76,36,29.91,29.74,17,3,17,0.00
2013-7-2,87.6,77.1,73.0,77.7,69.8,52.9,100,83,31,30.00,29.88,15,2,15,0.00
2013-7-3,88.5,78.5,73.4,79.1,68.4,51.7,94,74,30,30.03,29.97,11,2,11,0.00
2013-7-4,89.2,80.3,73.0,73.4,64.1,52.5,98,62,30,30.09,30.00,14,3,14,0.00
2013-7-5,89.1,80.9,73.9,80.6,63.8,50.6,100,63,28,30.06,30.00,15,2,15,0.00
2013-7-6,96.1,82.3,75.9,73.2,60.9,47.8,88,52,21,30.06,29.97,12,2,12,0.00
2013-7-7,95.7,82.6,75.9,73.1,60.0,44.7,87,51,18,30.06,29.97,10,2,10,0.00
2013-7-8,99.3,83.2,75.7,74.1,60.4,44.3,87,51,17,30.09,30.00,9,1,9,0.00
2013-7-9,98.8,83.3,76.8,73.7,58.8,42.7,85,49,17,30.09,29.97,9,1,9,0.00
2013-7-10,97.7,82.6,75.2,72.5,57.4,41.8,88,48,17,30.00,29.85,8,2,8,0.00
2013-7-11,96.6,82.7,75.2,75.7,59.9,41.7,94,52,17,29.91,29.77,15,3,15,0.00
2013-7-12,89.4,79.5,74.5,76.2,64.6,49.1,91,63,26,29.85,29.77,10,2,10,0.00
2013-7-13,88.2,77.4,73.0,76.4,69.0,51.6,100,78,31,29.91,29.80,8,1,8,0.00
2013-7-14,88.2,78.8,73.2,77.5,64.8,50.4,100,68,29,30.03,29.88,10,1,10,0.00
2013-7-15,86.4,79.4,74.7,74.5,65.5,54.6,88,65,36,30.09,30.00,17,2,17,0.00
2013-7-16,92.1,81.9,77.4,71.7,62.4,50.3,81,55,26,30.12,30.06,13,3,13,0.00
2013-7-17,95.4,82.9,77.0,74.3,59.6,42.2,87,51,18,30.12,30.00,11,2,11,0.00
2013-7-18,94.3,82.1,75.6,73.3,59.5,44.7,85,50,19,30.03,29.94,11,1,11,0.00
2013-7-19,91.6,79.8,74.3,76.7,61.2,44.5,98,57,20,30.03,29.94,11,2,11,0.00
2013-7-20,90.0,77.9,73.0,75.0,66.0,53.8,98,70,30,30.00,29.91,15,2,15,0.00
2013-7-21,91.2,79.1,73.6,76.1,64.0,45.3,92,64,22,30.00,29.91,13,1,13,0.00
2013-7-22,91.6,79.6,74.1,77.0,68.4,45.9,99,73,21,30.03,29.91,19,2,19,0.00
2013-7-23,90.1,79.9,75.0,71.7,64.0,53.7,83,61,29,29.94,29.80,12,2,12,0.00
2013-7-24,89.6,79.5,73.2,74.2,61.9,51.7,94,58,29,29.83,29.71,8,2,10,0.00
2013-7-25,96.3,81.9,74.3,68.0,58.7,45.0,81,49,18,29.85,29.74,10,1,10,0.00
2013-7-26,94.3,83.8,76.8,74.1,61.0,44.2,88,51,20,29.91,29.83,11,2,11,0.00
2013-7-27,90.9,80.8,74.5,76.1,66.3,48.0,89,65,26,29.91,29.77,13,1,13,0.00
2013-7-28,89.1,79.6,74.8,74.7,66.3,42.9,92,68,21,29.94,29.83,17,1,17,0.00
2013-7-29,93.4,82.8,73.9,70.7,58.4,42.9,85,48,19,30.03,29.91,8,2,8,0.00
2013-7-30,92.8,82.5,78.1,68.0,60.8,49.7,70,49,24,30.06,30.00,10,1,10,0.00
2013-7-31,94.5,79.7,73.4,76.1,68.3,45.5,100,73,19,30.06,30.06,10,1,10,0.00
2013-8-1,92.7,78.8,74.1,77.9,70.2,48.1,100,80,26,30.06,29.83,13,1,13,0.00
2013-8-2,92.8,81.9,75.7,77.5,62.6,44.0,99,58,20,29.94,29.83,9,1,9,0.00
2013-8-3,92.5,82.8,76.6,73.9,63.3,49.1,86,55,25,29.94,29.85,9,1,9,0.00
2013-8-4,95.4,85.4,78.6,73.7,59.7,43.5,84,47,18,29.94,29.83,8,1,8,0.00
2013-8-5,95.2,85.8,80.4,74.7,60.9,45.5,81,47,19,29.88,29.80,12,1,12,0.00
2013-8-6,95.4,84.6,80.1,74.3,63.4,48.8,81,52,21,29.88,29.80,10,2,10,0.00
2013-8-7,91.2,83.9,79.7,69.6,62.0,53.4,70,50,29,29.91,29.83,13,3,13,0.00
2013-8-8,88.3,82.6,78.1,79.4,65.0,52.3,90,59,30,29.94,29.85,11,1,11,0.00
2013-8-9,92.7,83.3,78.3,76.6,63.4,47.2,89,55,22,29.97,29.85,10,1,10,0.00
2013-8-10,94.1,83.8,78.4,75.4,62.2,43.2,86,54,18,30.00,29.94,13,1,13,0.00
2013-8-11,95.5,85.4,79.2,73.9,59.4,43.1,83,46,17,30.03,29.94,8,2,10,0.00
2013-8-12,95.4,84.8,76.6,75.7,58.9,44.8,91,44,19,30.00,29.85,12,2,12,0.00
2013-8-13,95.5,85.7,77.4,78.4,57.2,32.6,92,47,12,29.88,29.74,10,1,10,0.00
2013-8-14,96.1,84.4,72.9,78.2,59.8,44.2,100,50,18,29.85,29.71,21,1,21,0.00
2013-8-15,93.4,81.9,75.6,79.0,66.5,42.6,100,68,18,29.85,29.71,10,1,11,0.00
2013-8-16,88.3,79.7,75.9,79.6,71.1,50.3,100,80,29,30.50,29.74,11,1,11,0.00
2013-8-17,88.2,81.8,77.7,83.8,70.9,52.0,100,75,30,30.92,30.15,9,1,9,0.00
2013-8-18,91.4,82.8,77.4,83.7,67.9,51.2,99,67,28,30.56,30.56,13,1,13,0.00
2013-8-19,90.0,83.4,79.0,76.4,64.2,50.3,86,56,26,30.95,27.23,9,1,9,0.00
2013-8-20,93.9,83.6,77.4,80.5,62.7,44.3,93,56,20,30.98,20.26,9,1,9,0.00
2013-8-21,87.8,81.9,77.2,75.5,66.6,52.9,87,62,33,20.26,20.26,12,1,12,0.00
2013-8-22,82.0,78.5,73.9,77.4,73.5,56.3,97,85,45,31.01,19.87,13,1,13,0.00
2013-8-23,88.7,80.1,77.4,81.2,71.7,53.2,97,79,31,31.01,24.10,8,1,8,0.00
2013-8-24,84.6,79.9,76.8,77.6,67.5,54.3,97,70,37,31.01,20.23,10,1,10,0.00
2013-8-25,85.8,79.1,75.7,72.3,63.6,52.3,83,61,34,20.35,20.35,17,4,17,0.00
2013-8-26,87.1,79.9,74.5,70.9,60.2,48.6,86,54,29,31.01,20.26,15,3,15,0.00
2013-8-27,89.6,80.5,75.0,76.1,56.7,38.6,92,53,19,23.77,17.72,9,1,9,0.00
2013-8-28,91.2,80.9,73.8,68.4,51.9,38.9,80,41,18,17.72,17.72,6,1,7,0.00
2013-8-29,94.6,83.7,74.3,58.6,47.1,32.2,57,31,12,23.45,17.72,8,1,8,0.00
2013-8-30,97.0,84.0,77.2,64.5,54.6,37.8,63,40,14,29.85,17.72,13,1,13,0.00
2013-8-31,96.1,81.1,74.8,73.6,63.7,32.6,86,63,12,29.85,29.77,10,1,10,0.00
2013-9-1,92.8,82.3,77.2,72.7,61.2,43.9,84,54,21,29.88,29.77,11,2,11,0.00
2013-9-2,94.6,82.4,76.1,69.8,59.3,43.7,75,48,18,29.88,29.80,8,1,8,0.00
2013-9-3,92.1,83.9,77.4,71.8,57.7,44.5,82,45,20,29.88,29.80,8,1,8,0.00
2013-9-4,95.7,83.8,76.8,73.5,59.1,42.2,83,49,17,29.97,29.88,9,1,9,0.00
2013-9-5,95.4,82.2,76.6,80.3,64.9,44.3,92,61,18,30.00,29.91,8,0,8,0.00
2013-9-6,90.7,80.1,75.6,75.3,68.0,46.3,87,70,23,29.97,29.88,10,1,10,0.00
2013-9-7,89.6,80.7,74.3,74.1,57.8,36.7,91,53,19,29.94,29.85,14,2,14,0.00
2013-9-8,93.7,80.5,73.4,68.7,52.5,31.5,83,44,12,29.91,29.83,10,2,10,0.00
2013-9-9,94.5,80.6,73.2,67.0,51.9,32.4,78,41,13,29.97,29.85,11,2,11,0.00
2013-9-10,93.7,81.8,75.6,65.8,51.2,40.5,69,37,17,30.06,29.94,14,3,14,0.00
2013-9-11,79.2,77.5,76.1,58.9,57.1,54.8,55,49,43,30.03,30.00,3,0,3,0.00
2013-9-13,88.9,84.4,81.1,54.4,47.9,40.3,39,29,19,29.74,29.68,8,2,8,0.00
2013-9-14,93.4,81.8,73.4,78.9,59.2,37.4,94,53,15,29.91,29.71,26,1,26,0.00
2013-9-15,95.0,82.5,76.8,81.6,62.3,43.2,96,58,18,30.00,29.88,8,1,9,0.00
2013-9-16,97.0,82.9,77.7,75.4,60.3,40.5,86,52,17,30.00,29.91,10,1,10,0.00
2013-9-17,89.1,80.0,75.7,76.1,65.1,46.5,98,65,24,30.03,29.91,14,2,14,0.00
2013-9-18,83.8,77.5,74.3,77.3,62.6,46.4,100,65,33,30.03,29.94,18,4,18,0.00
2013-9-19,87.6,77.0,73.2,80.5,58.3,46.5,92,54,34,30.00,29.94,10,2,10,0.00
2013-9-20,93.9,77.7,72.1,71.3,55.5,32.2,87,52,12,29.97,29.83,11,1,11,0.00
2013-9-21,97.5,79.4,71.2,70.5,54.1,32.4,84,48,12,29.85,29.65,8,2,8,0.00
2013-9-22,86.5,78.0,74.7,71.8,62.1,50.6,87,61,30,29.77,29.65,8,1,8,0.00
2013-9-23,81.5,77.5,74.3,73.6,65.9,55.9,88,69,42,29.85,29.74,8,1,8,0.00
2013-9-24,82.8,77.8,75.7,77.5,68.5,55.9,92,75,43,29.85,29.74,10,1,10,0.00
2013-9-25,82.2,78.6,76.5,75.6,68.0,57.1,90,72,43,29.74,29.65,8,0,8,0.00
2013-9-26,80.1,76.2,70.9,74.7,65.0,52.2,88,70,44,29.83,29.65,11,2,11,0.00
2013-9-27,82.6,74.0,68.4,63.6,55.0,47.2,79,54,30,29.91,29.80,17,4,17,0.00
2013-9-28,76.6,74.1,71.8,69.0,57.0,44.0,85,58,33,30.00,29.88,16,4,16,0.00
2013-9-29,90.0,75.6,68.7,62.6,51.9,41.4,75,46,19,29.94,29.88,14,3,14,0.00
2013-9-30,90.9,75.0,69.1,62.5,47.7,31.5,74,41,13,29.94,29.85,13,2,13,0.00
2013-10-1,72.7,71.5,70.9,48.9,47.5,44.0,45,42,37,29.94,29.94,4,0,4,0.00
2013-10-8,74.3,71.7,68.9,72.6,69.4,64.2,96,93,85,29.91,29.83,14,4,14,0.00
2013-10-9,70.9,67.3,64.8,64.6,59.5,47.0,92,78,44,30.00,29.91,12,2,12,0.00
2013-10-10,97.2,72.2,64.4,66.9,49.1,24.9,89,53,8,30.00,29.88,7,1,8,0.00
2013-10-11,95.9,73.7,65.3,66.0,46.8,25.9,86,46,9,29.94,29.85,10,1,10,0.00
2013-10-12,102.2,74.6,64.2,59.9,43.1,24.4,77,39,7,29.94,29.88,8,1,8,0.00
2013-10-13,100.2,74.8,64.4,58.5,45.9,26.1,75,41,8,30.00,29.91,9,2,10,0.00
2013-10-14,80.1,72.1,67.6,60.9,53.4,45.2,77,54,31,29.97,29.91,14,3,14,0.00
2013-10-15,73.8,71.0,69.3,71.2,65.8,55.7,96,84,60,29.94,29.85,15,4,15,0.00
2013-10-16,100.0,74.2,67.3,65.0,55.1,27.2,82,56,8,29.91,29.83,10,2,10,0.00
2013-10-17,97.7,76.9,68.4,70.7,54.4,27.1,85,53,8,29.88,29.80,8,1,8,0.00
2013-10-18,104.4,79.8,72.0,66.3,53.7,26.7,80,46,7,29.91,29.80,9,2,9,0.00
2013-10-19,94.8,80.0,74.7,66.8,56.8,42.4,74,48,18,29.85,29.77,8,2,8,0.00
2013-10-20,86.7,73.5,68.2,62.5,44.8,26.9,65,38,12,29.91,29.80,11,3,11,0.00
2013-10-21,82.9,75.1,70.5,66.8,57.3,49.4,76,55,34,29.94,29.85,12,2,12,0.00
2013-10-22,81.5,75.3,72.3,75.2,66.7,57.1,89,76,46,29.88,29.74,10,2,10,0.00
2013-10-23,91.2,69.3,58.5,68.3,44.5,19.6,94,52,10,29.94,29.74,12,2,12,0.00
2013-10-24,86.9,61.3,52.5,40.5,26.0,18.4,51,27,12,30.09,29.94,13,2,13,0.00
2013-10-25,95.2,63.6,53.8,43.0,29.9,16.6,65,33,9,30.18,30.06,10,2,10,0.00
2013-10-26,91.9,61.8,51.6,41.0,32.7,20.8,52,36,9,30.18,30.03,10,2,10,0.00
2013-10-27,91.2,62.5,50.5,51.6,33.0,17.0,82,41,10,30.09,30.00,8,1,8,0.00
2013-10-28,93.9,66.2,55.2,48.0,38.6,24.8,72,40,9,30.15,30.03,9,1,9,0.00
2013-10-29,90.7,68.7,60.4,60.2,47.0,25.8,84,51,10,30.21,30.12,14,2,14,0.00
2013-10-30,85.8,70.5,63.1,62.3,48.5,38.0,82,50,21,30.18,30.09,12,2,12,0.00
2013-10-31,87.3,74.6,67.6,69.3,51.6,36.2,83,49,19,30.09,29.88,9,2,9,0.00
2013-11-1,83.7,76.9,72.1,62.2,51.1,38.6,69,43,21,29.91,29.74,15,4,15,0.00
2013-11-2,77.4,69.0,59.4,74.2,58.3,32.6,99,73,27,29.88,29.68,12,1,12,0.00
2013-11-3,81.9,61.4,53.2,52.8,31.9,17.8,78,36,13,30.12,29.88,16,3,16,0.00
2013-11-4,74.7,64.1,55.2,60.5,40.8,28.5,79,44,19,30.18,30.09,21,5,21,0.00
2013-11-5,74.3,67.8,64.0,67.9,59.4,43.5,96,76,34,30.18,30.09,20,5,20,0.00
2013-11-6,81.7,71.8,68.5,67.4,60.2,41.8,89,70,25,30.09,30.00,10,3,10,0.00
2013-11-7,81.0,72.5,69.8,66.2,54.5,37.6,84,57,22,30.00,29.88,8,0,8,0.00
2013-11-8,74.5,61.0,52.3,45.7,28.4,19.8,43,30,14,30.12,29.94,17,4,17,0.00
2013-11-9,77.2,64.3,54.3,58.9,41.9,32.8,80,47,21,30.15,30.09,12,2,12,0.00
2013-11-10,84.0,67.2,60.8,65.6,49.0,24.7,88,58,15,30.15,30.03,9,1,9,0.00
2013-11-11,86.0,66.5,57.7,61.0,47.2,24.0,82,56,12,30.12,30.03,10,2,10,0.00
2013-11-12,78.1,68.3,60.8,61.0,43.6,24.8,81,47,16,30.06,29.94,13,2,13,0.00
2013-11-13,60.6,50.2,44.2,25.6,18.7,13.3,39,29,20,30.36,30.06,22,6,22,0.00
2013-11-14,70.2,55.2,42.8,51.5,33.7,16.7,76,46,23,30.30,30.15,17,3,17,0.00
2013-11-15,68.4,64.6,58.3,63.8,58.0,50.2,89,80,54,30.15,30.00,5,0,5,0.00
2013-11-16,77.2,69.8,63.5,70.8,56.2,37.5,97,67,26,30.09,30.00,12,2,12,0.00
2013-11-17,80.1,74.0,69.8,72.9,62.0,46.9,92,69,33,30.03,29.91,8,1,8,0.00
2013-11-18,81.0,74.7,71.4,75.3,67.6,53.6,99,81,41,29.94,29.80,8,1,8,0.00
2013-11-19,76.1,64.0,55.4,74.6,35.7,21.5,99,37,14,29.97,29.83,17,5,17,0.00
2013-11-20,69.6,65.6,62.6,63.5,49.3,37.2,88,58,39,30.12,29.94,16,5,16,0.00
2013-11-21,74.5,68.5,66.4,63.3,57.0,43.8,87,69,34,30.18,30.09,13,4,13,0.00
2013-11-22,87.3,71.4,66.4,68.1,54.8,31.5,89,62,14,30.18,30.06,10,1,10,0.00
2013-11-23,92.3,71.2,63.7,66.3,49.5,24.1,86,53,9,30.06,29.91,10,1,10,0.00
2013-11-24,65.5,57.7,52.5,44.7,24.4,9.5,47,29,14,30.27,30.00,22,6,22,0.00
2013-11-25,73.0,59.8,48.0,49.7,33.9,20.7,62,39,20,30.24,30.03,17,3,17,0.00
2013-11-26,78.1,71.6,64.9,75.6,60.6,40.1,98,71,39,30.03,29.59,13,3,13,0.00
2013-11-27,73.8,56.4,39.7,72.9,36.9,16.9,98,51,27,30.15,29.53,21,5,21,0.00
2013-11-28,65.3,44.7,33.3,24.8,17.9,7.8,45,35,14,30.33,30.15,15,3,15,0.00
2013-11-29,72.7,53.3,43.5,33.4,25.3,16.6,45,35,15,30.36,30.27,14,4,14,0.00
2013-11-30,62.2,57.5,54.9,46.7,39.3,30.3,66,51,39,30.30,30.15,15,4,15,0.00
2013-12-1,78.4,60.8,54.1,52.4,39.4,23.3,78,47,14,30.15,29.91,9,1,9,0.00
2013-12-2,82.0,61.1,56.7,53.8,43.1,21.8,82,57,13,29.91,29.74,10,1,10,0.00
2013-12-3,84.7,64.1,54.5,62.6,41.9,21.5,88,51,12,29.88,29.80,9,1,9,0.00
2013-12-4,87.1,69.2,61.9,65.4,49.9,27.4,91,55,14,30.00,29.85,8,0,8,0.00
2013-12-5,91.8,72.4,64.4,68.0,49.2,25.9,85,51,10,30.09,29.97,11,2,11,0.00
2013-12-6,92.7,74.4,68.9,65.4,49.7,25.9,82,46,9,30.06,29.97,13,3,13,0.00
2013-12-7,90.1,75.1,69.1,71.0,52.7,26.0,94,52,10,30.12,30.03,11,2,11,0.00
2013-12-8,70.7,68.0,65.8,63.9,57.5,47.5,87,70,45,30.18,30.06,9,2,9,0.00
2013-12-9,89.1,73.8,67.1,71.8,51.5,26.1,92,54,10,30.09,29.97,10,2,10,0.00
2013-12-10,80.1,69.9,54.1,70.4,52.8,21.0,89,58,22,30.18,29.94,13,4,13,0.00
2013-12-11,65.8,57.7,49.3,39.2,33.0,20.9,47,39,27,30.21,30.15,15,3,15,0.00
2013-12-12,78.6,56.8,47.5,32.0,19.8,9.5,43,25,12,30.30,30.15,9,2,11,0.00
2013-12-13,74.8,55.8,46.2,47.7,31.3,18.2,72,41,14,30.27,30.06,13,2,13,0.00
2013-12-14,81.5,68.0,56.5,70.6,56.1,37.4,96,70,21,30.06,29.80,17,3,17,0.00
2013-12-15,70.7,62.6,48.7,69.4,50.5,27.8,99,69,35,30.09,29.77,13,2,13,0.00
2013-12-16,70.7,48.9,39.9,36.5,24.1,10.6,72,41,13,30.18,30.06,8,1,8,0.00
2013-12-17,79.5,53.0,41.4,38.2,24.6,11.1,77,40,13,30.18,30.06,10,1,10,0.00
2013-12-18,76.8,53.1,44.6,29.9,18.8,9.2,56,28,12,30.21,30.09,11,2,11,0.00
2013-12-19,81.3,55.8,41.9,49.5,34.4,20.9,79,49,13,30.21,30.12,8,1,8,0.00
2013-12-20,85.3,63.2,52.9,57.9,43.1,23.2,82,54,12,30.15,30.06,9,1,9,0.00
2013-12-21,87.6,73.4,64.4,61.7,48.6,25.5,82,47,12,30.06,29.94,15,4,15,0.00
2013-12-22,83.5,75.9,72.5,69.2,54.2,37.8,87,52,21,30.03,29.97,14,3,14,0.00
2013-12-23,86.4,75.3,64.2,66.8,51.5,34.6,82,47,17,30.06,29.94,16,4,16,0.00
2013-12-24,73.8,56.5,46.0,50.9,22.3,5.2,62,30,13,30.24,30.03,13,4,13,0.00
2013-12-25,61.0,51.2,40.5,38.8,27.3,7.2,52,40,21,30.21,30.15,15,4,15,0.00
2013-12-26,61.3,54.2,50.5,38.3,31.2,24.3,57,42,25,30.21,30.09,9,2,9,0.00
2013-12-27,60.1,56.2,52.3,41.5,35.0,26.6,61,45,30,30.24,30.12,13,3,13,0.00
2013-12-28,72.3,64.8,57.9,65.5,50.6,28.0,87,63,31,30.21,29.88,11,2,11,0.00
2013-12-29,76.1,70.4,60.4,72.2,56.5,45.2,97,63,39,29.91,29.80,14,3,14,0.00
2013-12-30,79.2,58.4,51.4,49.6,34.8,16.9,79,47,13,30.12,29.91,10,2,10,0.00
2013-12-31,62.8,57.9,54.3,36.4,30.2,19.7,46,36,19,30.24,30.09,9,1,9,0.00
2014-1-1,63.1,58.7,54.1,61.4,46.6,33.1,94,66,41,30.24,30.00,8,1,8,0.00
2014-1-2,70.0,64.8,55.6,67.7,60.7,29.4,97,89,37,30.00,29.65,20,1,20,0.00